Hooper Bay, AK

4:38 AM AKDT on August 30, 2016 (GMT -0800)
Chevak

Weather History for PAVA - April, 2013

Change the Weather History Date:

Wednesday, April 24, 2013

  Actual Average (PAHP) Record (PAHP)
Temperature  
Mean Temperature 28 °F -  
Max Temperature 32 °F 30 °F 57 °F (2014)
Min Temperature 24 °F 23 °F -13 °F (2008)
Degree Days  
Heating Degree Days 37    
Moisture  
Dew Point 26 °F    
Average Humidity 94    
Maximum Humidity 100    
Minimum Humidity 80    
Precipitation  
Precipitation 0.00 in - - ()
Sea Level Pressure  
Sea Level Pressure 30.47 in    
Wind  
Wind Speed 6 mph (NW)    
Max Wind Speed 22 mph    
Max Gust Speed -    
Visibility 7 miles    
Events Fog , Snow    
Averages and records for this station are not official NWS values.
T = Trace of Precipitation, MM = Missing Value Source: NWS Daily Summary

Daily Weather History Graph

Daily Weather History Graph

Search for Another Location

Airport or City:

Trip Planner

Search our weather history database for the weather conditions in past years. The results will help you decide how hot, cold, wet, or windy it might be!

Date:

Astronomy

Apr. 24, 2013 Rise Set
Actual Time 7:11 AM AKDT 10:51 PM AKDT
Civil Twilight 6:17 AM AKDT 11:45 PM AKDT
Nautical Twilight 4:56 AM AKDT 1:09 AM AKDT
Astronomical Twilight 3:32 AM AKDT Sun does not set
Moon 10:04 PM AKDT (4/24) 6:41 AM AKDT (4/24)
Length of Visible Light 17h 28m
Length of Day
15h 40m
Waxing Gibbous, 99% of the Moon is Illuminated
Apr 24
Waxing Gibbous
Apr 25
Full
May 2
Last Quarter
May 9
New
May 17
First Quarter

Hourly Weather History & Observations

Time (AKDT) Temp. Windchill Dew Point Humidity Pressure Visibility Wind Dir Wind Speed Gust Speed Precip Events Conditions
12:27 AM 24.8 °F - 24.8 °F 100% 30.50 in 1.8 mi Calm Calm - 0.00 in Snow Light Snow
12:33 AM 24.8 °F - 24.8 °F 100% 30.50 in 1.0 mi Calm Calm - 0.00 in   Overcast
12:42 AM 24.8 °F - 24.8 °F 100% 30.50 in 1.2 mi Calm Calm - 0.00 in   Overcast
12:57 AM 24.8 °F - 24.8 °F 100% 30.50 in 1.0 mi Calm Calm - 0.00 in   Overcast
1:02 AM 24.8 °F - 24.8 °F 100% 30.50 in 1.2 mi Calm Calm - 0.00 in   Overcast
1:08 AM 24.8 °F - 24.8 °F 100% 30.50 in 1.0 mi Calm Calm - 0.00 in   Overcast
1:14 AM 24.8 °F - 24.8 °F 100% 30.50 in 0.8 mi Calm Calm - 0.00 in   Overcast
1:19 AM 24.8 °F - 24.8 °F 100% 30.50 in 0.8 mi Calm Calm - 0.00 in   Overcast
1:27 AM 24.8 °F 20.5 °F 23.0 °F 93% 30.50 in 0.5 mi WSW 3.5 mph - 0.00 in Fog Light Freezing Fog
1:57 AM 24.8 °F - 23.0 °F 93% 30.50 in 0.8 mi Calm Calm - 0.00 in   Mostly Cloudy
2:04 AM 24.8 °F - 23.0 °F 93% 30.50 in 0.8 mi Calm Calm - 0.00 in   Mostly Cloudy
2:07 AM 24.8 °F - 23.0 °F 93% 30.50 in 1.0 mi Calm Calm - 0.00 in   Mostly Cloudy
2:22 AM 24.1 °F - 23.0 °F 96% 30.51 in 1.0 mi Calm Calm - 0.00 in   Mostly Cloudy
2:30 AM 24.8 °F 20.5 °F 23.0 °F 93% 30.49 in 0.8 mi SW 3.5 mph - N/A   Overcast
2:50 AM 24.8 °F 20.5 °F 23.0 °F 93% 30.50 in 1.0 mi SW 3.5 mph - N/A   Overcast
2:57 AM 24.1 °F - 23.0 °F 96% 30.51 in 1.0 mi Calm Calm - N/A   Overcast
3:05 AM 24.8 °F - 23.0 °F 93% 30.50 in 1.5 mi Calm Calm - N/A   Overcast
3:09 AM 24.8 °F - 23.0 °F 93% 30.49 in 2.0 mi Calm Calm - N/A   Overcast
3:13 AM 24.8 °F 20.5 °F 23.0 °F 93% 30.49 in 4.0 mi SSW 3.5 mph - N/A   Overcast
3:57 AM 24.1 °F 18.2 °F 23.0 °F 96% 30.50 in 10.0 mi SW 4.6 mph - N/A   Overcast
4:57 AM 25.0 °F 18.1 °F 24.1 °F 96% 30.48 in 10.0 mi West 5.8 mph - 0.00 in Snow Light Snow
5:57 AM 26.1 °F 17.6 °F 25.0 °F 96% 30.49 in 10.0 mi WNW 8.1 mph - 0.00 in   Overcast
6:10 AM 26.6 °F 18.2 °F 26.6 °F 100% 30.48 in 10.0 mi WNW 8.1 mph - N/A   Overcast
6:57 AM 27.0 °F 19.5 °F 26.1 °F 96% 30.49 in 9.0 mi West 6.9 mph - 0.00 in Snow Light Snow
7:57 AM 26.1 °F 16.8 °F 25.0 °F 96% 30.48 in 10.0 mi West 9.2 mph - 0.00 in   Overcast
8:32 AM 26.6 °F 16.8 °F 26.6 °F 100% 30.47 in 9.0 mi WNW 10.4 mph - 0.00 in   Overcast
8:57 AM 27.0 °F 18.0 °F 26.1 °F 96% 30.48 in 8.0 mi WNW 9.2 mph - 0.00 in Snow Light Snow
9:19 AM 26.6 °F 17.5 °F 26.6 °F 100% 30.46 in 9.0 mi West 9.2 mph - 0.00 in Snow Light Snow
9:57 AM 28.4 °F 18.0 °F 26.6 °F 93% 30.46 in 10.0 mi WNW 12.7 mph - 0.00 in   Overcast
10:57 AM 28.0 °F 18.1 °F 26.1 °F 92% 30.46 in 10.0 mi West 11.5 mph - 0.00 in   Overcast
11:57 AM 28.0 °F 17.5 °F 26.1 °F 92% 30.46 in 10.0 mi WNW 12.7 mph - 0.00 in   Overcast
12:57 PM 28.0 °F 15.7 °F 26.1 °F 92% 30.46 in 9.0 mi WNW 17.3 mph - 0.00 in Snow Light Snow
1:57 PM 28.9 °F 17.7 °F 26.1 °F 89% 30.47 in 9.0 mi WNW 15.0 mph - 0.00 in   Overcast
2:57 PM 28.9 °F 15.4 °F 26.1 °F 89% 30.45 in 10.0 mi NW 21.9 mph - 0.00 in   Overcast
3:57 PM 30.0 °F 17.9 °F 27.0 °F 88% 30.45 in 10.0 mi NW 18.4 mph - 0.00 in   Overcast
4:22 PM 32.0 °F 21.2 °F 28.4 °F 87% 30.43 in 10.0 mi NW 16.1 mph - N/A   Overcast
4:57 PM 32.0 °F 23.6 °F 28.0 °F 85% 30.45 in 10.0 mi North 10.4 mph - N/A   Overcast
5:08 PM 32.0 °F 20.8 °F 26.6 °F 80% 30.43 in 10.0 mi North 17.3 mph - N/A   Overcast
5:15 PM 30.2 °F 18.5 °F 26.6 °F 86% 30.43 in 10.0 mi NNW 17.3 mph - N/A   Mostly Cloudy
5:45 PM 30.2 °F 18.9 °F 28.4 °F 93% 30.43 in 10.0 mi NNW 16.1 mph - N/A   Mostly Cloudy
5:57 PM 30.2 °F 18.1 °F 28.4 °F 93% 30.42 in 10.0 mi NNW 18.4 mph - N/A   Overcast
6:57 PM 32.0 °F 21.6 °F 28.9 °F 88% 30.43 in 10.0 mi NNW 15.0 mph - N/A   Overcast
7:57 PM 30.0 °F 17.5 °F 28.9 °F 96% 30.42 in 10.0 mi North 19.6 mph - N/A   Overcast
8:05 PM 30.2 °F 18.5 °F 28.4 °F 93% 30.41 in 10.0 mi North 17.3 mph - N/A   Overcast
8:19 PM 30.2 °F 19.3 °F 28.4 °F 93% 30.42 in 10.0 mi North 15.0 mph - N/A   Overcast
8:49 PM 30.2 °F 18.5 °F 28.4 °F 93% 30.41 in 10.0 mi North 17.3 mph - N/A   Overcast
8:57 PM 30.2 °F 17.1 °F 28.4 °F 93% 30.41 in 10.0 mi North 21.9 mph - N/A   Mostly Cloudy
9:01 PM 30.2 °F 17.8 °F 28.4 °F 93% 30.41 in 10.0 mi North 19.6 mph - N/A   Overcast
9:14 PM 30.2 °F 19.3 °F 28.4 °F 93% 30.41 in 10.0 mi NNW 15.0 mph - N/A   Overcast
9:57 PM 30.9 °F 19.4 °F 28.9 °F 92% 30.43 in 10.0 mi North 17.3 mph - N/A   Overcast
10:57 PM 30.9 °F 21.2 °F 28.9 °F 92% 30.43 in 10.0 mi North 12.7 mph - 0.00 in   Overcast
11:57 PM 30.0 °F 21.7 °F 28.9 °F 96% 30.44 in 10.0 mi North 9.2 mph - 0.00 in   Overcast